EW3937 Weather Reports


Display with metric or nautical units.
time (UTC)temp
F
wind
direction
speed
MPH
gust
MPH
rain 1hr
in
rain 24hr
in
rain mn
in
humidity
%
barometer
mb
20260506165003 66 82 0.0 4.0 0.00 0.00 0.00 48 1015.0
20260506164503 66 65 0.0 3.0 0.00 0.00 0.00 48 1015.0
20260506164003 66 30 1.0 3.0 0.00 0.00 0.00 49 1015.0
20260506163717 66 32 1.0 3.0 0.00 0.00 0.00 48 1015.1
20260506163003 65 64 1.0 3.0 0.00 0.00 0.00 50 1014.9
20260506162503 65 61 1.0 3.0 0.00 0.00 0.00 48 1015.0
20260506162003 64 52 1.0 3.0 0.00 0.00 0.00 48 1015.0
20260506161716 64 24 1.0 4.0 0.00 0.00 0.00 50 1015.0
20260506161003 63 13 1.0 7.0 0.00 0.00 0.00 50 1015.2
20260506160503 63 33 1.0 7.0 0.00 0.00 0.00 50 1015.2
20260506160003 63 37 1.0 3.0 0.00 0.00 0.00 51 1015.2
20260506155504 62 43 1.0 4.0 0.00 0.00 0.00 52 1015.2
20260506155003 62 24 1.0 4.0 0.00 0.00 0.00 50 1015.2
20260506154503 62 39 1.0 5.0 0.00 0.00 0.00 53 1015.2
20260506154003 61 46 0.0 5.0 0.00 0.00 0.00 54 1015.2
20260506153718 61 8 0.0 3.0 0.00 0.00 0.00 55 1015.1
20260506153003 60 39 1.0 6.0 0.00 0.00 0.00 55 1015.1
20260506152503 60 50 1.0 6.0 0.00 0.00 0.00 58 1015.2
20260506152003 60 63 1.0 3.0 0.00 0.00 0.00 58 1015.2
20260506151503 59 57 1.0 4.0 0.00 0.00 0.00 60 1015.3
20260506151003 59 43 1.0 4.0 0.00 0.00 0.00 59 1015.3
20260506150504 59 37 1.0 4.0 0.00 0.00 0.00 59 1015.2
20260506150217 58 27 1.0 3.0 0.00 0.00 0.00 60 1015.2
20260506145503 58 47 1.0 4.0 0.00 0.00 0.00 59 1015.1
20260506145003 58 48 0.0 3.0 0.00 0.00 0.00 58 1015.2
20260506144503 57 0 4.0 4.0 0.00 0.00 0.00 59 1015.2
20260506144217 57 0 4.0 4.0 0.00 0.00 0.00 61 1015.2
20260506143503 56 0 2.0 2.0 0.00 0.00 0.00 62 1015.2
20260506143003 56 0 1.0 1.0 0.00 0.00 0.00 64 1015.2
20260506142718 55 0 2.0 2.0 0.00 0.00 0.00 65 1015.2
20260506142003 54 0 2.0 2.0 0.00 0.00 0.00 64 1015.3
20260506141503 54 0 1.0 1.0 0.00 0.00 0.00 64 1015.2
20260506141003 53 0 2.0 2.0 0.00 0.00 0.00 65 1015.2
20260506140503 52 105 4.0 4.0 0.00 0.00 0.00 67 1015.3
20260506140003 51 100 4.0 4.0 0.00 0.00 0.00 67 1015.3
20260506135503 50 0 1.0 1.0 0.00 0.00 0.00 68 1015.2
20260506135003 43 0 3.0 3.0 0.00 0.00 0.00 75 1015.2
20260506134503 43 0 3.0 3.0 0.00 0.00 0.00 75 1015.3
20260506134003 43 0 3.0 3.0 0.00 0.00 0.00 75 1015.1
20260506133503 43 0 3.0 3.0 0.00 0.00 0.00 75 1015.1
20260506133003 43 0 3.0 3.0 0.00 0.00 0.00 75 1015.0
20260506132503 43 0 3.0 3.0 0.00 0.00 0.00 75 1014.9
20260506132003 43 0 3.0 3.0 0.00 0.00 0.00 75 1014.9
20260506131503 43 0 3.0 3.0 0.00 0.00 0.00 75 1014.7
20260506131003 43 0 3.0 3.0 0.00 0.00 0.00 75 1014.7
20260506130503 43 0 3.0 3.0 0.00 0.00 0.00 75 1014.7
20260506130004 43 0 3.0 3.0 0.00 0.00 0.00 75 1014.8
20260506125503 43 0 3.0 3.0 0.00 0.00 0.00 75 1014.6
20260506125003 43 0 3.0 3.0 0.00 0.00 0.00 75 1014.6
20260506124503 43 0 3.0 3.0 0.00 0.00 0.00 75 1014.5
20260506124004 43 0 3.0 3.0 0.00 0.00 0.00 75 1014.5
20260506123717 43 0 3.0 3.0 0.00 0.00 0.00 76 1014.5
20260506123003 44 0 2.0 2.0 0.00 0.00 0.00 76 1014.5
20260506122503 43 0 1.0 1.0 0.00 0.00 0.00 77 1014.5
20260506122218 43 0 1.0 1.0 0.00 0.00 0.00 77 1014.5
20260506121503 43 0 1.0 1.0 0.00 0.00 0.00 77 1014.5
20260506121003 43 0 1.0 1.0 0.00 0.00 0.00 77 1014.5
20260506120503 43 0 1.0 1.0 0.00 0.00 0.00 78 1014.5
20260506120004 43 0 0.0 1.0 0.00 0.00 0.00 78 1014.5
20260506115503 43 0 0.0 1.0 0.00 0.00 0.00 78 1014.4
20260506115003 42 0 0.0 0.0 0.00 0.00 0.00 80 1014.4
20260506114503 42 149 1.0 2.0 0.00 0.00 0.00 81 1014.4
20260506114003 42 149 0.0 2.0 0.00 0.00 0.00 81 1014.3
20260506113503 43 0 2.0 2.0 0.00 0.00 0.00 79 1014.5
20260506113003 43 0 2.0 2.0 0.00 0.00 0.00 79 1014.4
20260506112503 43 0 0.0 0.0 0.00 0.00 0.00 79 1014.3
20260506112003 43 0 1.0 1.0 0.00 0.00 0.00 79 1014.4
20260506111503 44 0 1.0 1.0 0.00 0.00 0.00 79 1014.4
20260506111003 43 0 1.0 1.0 0.00 0.00 0.00 79 1014.5
20260506110503 43 0 2.0 2.0 0.00 0.00 0.00 79 1014.4
20260506110003 44 0 2.0 2.0 0.00 0.00 0.00 78 1014.4
20260506105503 44 0 1.0 1.0 0.00 0.00 0.00 78 1014.4
20260506105003 44 0 1.0 1.0 0.00 0.00 0.00 78 1014.4
20260506104503 42 0 2.0 2.0 0.00 0.00 0.00 80 1014.4
20260506104003 42 0 2.0 2.0 0.00 0.00 0.00 81 1014.3
20260506103503 42 0 2.0 2.0 0.00 0.00 0.00 81 1014.3
20260506103003 43 0 1.0 1.0 0.00 0.00 0.00 79 1014.3
20260506102503 44 0 1.0 1.0 0.00 0.00 0.00 77 1014.2
20260506102003 44 0 1.0 1.0 0.00 0.00 0.00 77 1014.1
20260506101503 44 0 1.0 1.0 0.00 0.00 0.00 77 1014.1
20260506101003 44 0 1.0 1.0 0.00 0.00 0.00 78 1014.1
20260506100503 44 0 1.0 1.0 0.00 0.00 0.00 79 1014.2
20260506100217 43 0 1.0 1.0 0.00 0.00 0.00 80 1014.2
20260506095503 43 0 0.0 0.0 0.00 0.00 0.00 80 1014.2
20260506095003 43 0 0.0 0.0 0.00 0.00 0.00 80 1014.2
20260506094503 43 0 0.0 0.0 0.00 0.00 0.00 80 1014.2
20260506094003 43 0 0.0 0.0 0.00 0.00 0.00 79 1014.2
20260506093503 43 0 0.0 0.0 0.00 0.00 0.00 79 1014.2
20260506093003 44 0 0.0 0.0 0.00 0.00 0.00 78 1014.1
20260506092503 44 0 1.0 1.0 0.00 0.00 0.00 78 1014.2
20260506092003 44 0 1.0 1.0 0.00 0.00 0.00 77 1014.2
20260506091503 44 0 1.0 1.0 0.00 0.00 0.00 77 1014.1
20260506091003 44 0 0.0 1.0 0.00 0.00 0.00 78 1014.1
20260506090503 43 0 1.0 1.0 0.00 0.00 0.00 80 1014.1
20260506090003 43 0 0.0 1.0 0.00 0.00 0.00 80 1014.0
20260506085503 43 0 1.0 1.0 0.00 0.00 0.00 81 1014.1
20260506085003 42 0 0.0 1.0 0.00 0.00 0.00 82 1014.1
20260506084503 42 0 0.0 0.0 0.00 0.00 0.00 81 1014.0
20260506084216 42 0 0.0 0.0 0.00 0.00 0.00 82 1014.0
20260506083503 42 0 0.0 1.0 0.00 0.00 0.00 81 1014.0
20260506083003 43 0 0.0 1.0 0.00 0.00 0.00 81 1014.0
20260506082503 43 164 1.0 1.0 0.00 0.00 0.00 81 1013.9
20260506082003 43 161 1.0 4.0 0.00 0.00 0.00 81 1013.8
20260506081503 43 178 1.0 4.0 0.00 0.00 0.00 81 1013.8
20260506081003 43 188 1.0 4.0 0.00 0.00 0.00 82 1013.7
20260506080503 42 181 0.0 4.0 0.00 0.00 0.00 83 1013.7
20260506073503 42 0 0.0 0.0 0.00 0.00 0.00 81 1013.7
20260506073003 42 0 0.0 0.0 0.00 0.00 0.00 81 1013.7
20260506072503 43 0 1.0 1.0 0.00 0.00 0.00 79 1013.6
20260506072003 44 0 1.0 1.0 0.00 0.00 0.00 78 1013.7
20260506071503 44 0 1.0 1.0 0.00 0.00 0.00 78 1013.5
20260506071003 44 0 1.0 1.0 0.00 0.00 0.00 78 1013.5
20260506070503 44 0 2.0 2.0 0.00 0.00 0.00 79 1013.5
20260506062503 43 0 0.0 0.0 0.00 0.00 0.00 79 1013.2
20260506062218 43 0 0.0 0.0 0.00 0.00 0.00 79 1013.1
20260506061716 44 0 0.0 0.0 0.00 0.00 0.00 79 1013.1
20260506061218 44 0 0.0 0.0 0.00 0.00 0.00 79 1013.1
20260506060503 44 0 0.0 0.0 0.00 0.00 0.00 79 1013.1
20260506051003 46 0 0.0 0.0 0.00 0.00 0.00 72 1012.8
20260506050503 46 0 0.0 0.0 0.00 0.00 0.00 73 1012.8
20260506045003 47 0 0.0 0.0 0.00 0.00 0.00 72 1012.7
20260506044503 47 0 0.0 0.0 0.00 0.00 0.00 71 1012.7
20260506044003 48 0 0.0 0.0 0.00 0.00 0.00 69 1012.7
20260506043503 48 0 0.0 0.0 0.00 0.00 0.00 68 1012.8
20260506043003 49 0 0.0 0.0 0.00 0.00 0.00 67 1012.8
20260506042503 49 0 0.0 0.0 0.00 0.00 0.00 66 1012.8
20260506042217 49 0 0.0 0.0 0.00 0.00 0.00 66 1012.8
20260506041503 49 0 0.0 0.0 0.00 0.00 0.00 68 1012.7
20260506041003 49 0 1.0 1.0 0.00 0.00 0.00 67 1012.7
20260506040503 50 0 1.0 1.0 0.00 0.00 0.00 66 1012.6
20260506040003 50 0 0.0 0.0 0.00 0.00 0.00 64 1012.6
20260506035503 51 0 0.0 1.0 0.00 0.00 0.00 63 1012.6
20260506035003 51 0 0.0 1.0 0.00 0.00 0.00 62 1012.6
20260506034503 51 0 0.0 1.0 0.00 0.00 0.00 63 1012.6
20260506034003 52 0 0.0 1.0 0.00 0.00 0.00 62 1012.5
20260506033718 52 0 0.0 1.0 0.00 0.00 0.00 62 1012.6
20260506033003 52 0 0.0 1.0 0.00 0.00 0.00 63 1012.4
20260506032503 53 0 0.0 1.0 0.00 0.00 0.00 62 1012.4
20260506032003 54 0 0.0 1.0 0.00 0.00 0.00 60 1012.3
20260506031503 55 0 0.0 0.0 0.00 0.00 0.00 58 1012.3
20260506031003 56 0 0.0 0.0 0.00 0.00 0.00 57 1012.3
20260506030503 58 0 0.0 1.0 0.00 0.00 0.00 54 1012.3
20260506030003 59 0 0.0 2.0 0.00 0.00 0.00 52 1012.2
20260506025503 60 0 0.0 2.0 0.00 0.00 0.00 50 1012.2
20260506025003 62 0 0.0 2.0 0.00 0.00 0.00 46 1012.1
20260506024717 63 0 0.0 1.0 0.00 0.00 0.00 45 1012.1
20260506024003 65 336 1.0 3.0 0.00 0.00 0.00 39 1011.9
20260506023503 66 340 1.0 3.0 0.00 0.00 0.00 38 1011.9
20260506023218 66 340 1.0 3.0 0.00 0.00 0.00 37 1011.9
20260506022503 68 330 1.0 2.0 0.00 0.00 0.00 35 1011.9
20260506022003 68 338 1.0 3.0 0.00 0.00 0.00 35 1011.9
20260506021503 68 344 2.0 3.0 0.00 0.00 0.00 35 1011.9
20260506021003 68 343 2.0 4.0 0.00 0.00 0.00 35 1011.9
20260506020503 68 344 3.0 5.0 0.00 0.00 0.00 34 1011.9
20260506020003 68 345 3.0 6.0 0.00 0.00 0.00 34 1011.9
20260506015503 68 346 3.0 6.0 0.00 0.00 0.00 36 1011.9
20260506015003 69 344 4.0 6.0 0.00 0.00 0.00 35 1011.8
20260506014503 69 341 4.0 9.0 0.00 0.00 0.00 36 1011.9
20260506014218 69 338 4.0 9.0 0.00 0.00 0.00 35 1011.9
20260506013503 69 337 4.0 8.0 0.00 0.00 0.00 34 1011.8
20260506013003 69 340 5.0 10.0 0.00 0.00 0.00 35 1011.8
20260506012503 70 344 5.0 10.0 0.00 0.00 0.00 38 1011.8
20260506012003 70 342 5.0 10.0 0.00 0.00 0.00 34 1011.8
20260506011503 70 342 5.0 10.0 0.00 0.00 0.00 34 1011.8
20260506011003 70 348 5.0 11.0 0.00 0.00 0.00 35 1011.8
20260506010503 70 349 5.0 11.0 0.00 0.00 0.00 35 1011.8
20260506010003 71 343 5.0 11.0 0.00 0.00 0.00 34 1011.8
20260506005503 70 341 5.0 12.0 0.00 0.00 0.00 34 1011.8
20260506005003 71 342 5.0 12.0 0.00 0.00 0.00 33 1011.7
20260506004504 71 344 5.0 11.0 0.00 0.00 0.00 35 1011.8
20260506004003 71 342 4.0 11.0 0.00 0.00 0.00 34 1011.8
20260506003503 71 344 4.0 10.0 0.00 0.00 0.00 34 1011.8
20260506003003 72 347 4.0 9.0 0.00 0.00 0.00 33 1011.8
20260506002503 72 344 4.0 11.0 0.00 0.00 0.00 34 1011.8
20260506002003 72 340 4.0 11.0 0.00 0.00 0.00 35 1011.8
20260506001503 72 341 3.0 10.0 0.00 0.00 0.00 34 1011.8
20260506001003 72 350 3.0 7.0 0.00 0.00 0.00 35 1011.8
20260506000503 72 349 3.0 7.0 0.00 0.00 0.00 34 1011.9
20260506000004 72 345 4.0 12.0 0.00 0.00 0.00 35 1011.9
20260505235503 72 344 4.0 12.0 0.00 0.00 0.00 36 1011.9
20260505235003 72 344 4.0 9.0 0.00 0.00 0.00 34 1011.8
20260505234503 72 349 4.0 13.0 0.00 0.00 0.00 33 1011.9
20260505234217 72 349 4.0 13.0 0.00 0.00 0.00 33 1011.9
20260505233503 72 337 3.0 10.0 0.00 0.00 0.00 33 1011.9
20260505233003 73 331 3.0 10.0 0.00 0.00 0.00 32 1011.9
20260505232503 73 339 3.0 10.0 0.00 0.00 0.00 32 1012.0
20260505232003 73 338 3.0 10.0 0.00 0.00 0.00 33 1011.9
20260505231503 73 333 3.0 10.0 0.00 0.00 0.00 35 1012.1
20260505231003 73 333 3.0 9.0 0.00 0.00 0.00 36 1012.0
20260505230503 73 327 3.0 9.0 0.00 0.00 0.00 34 1012.0
20260505230003 73 324 4.0 9.0 0.00 0.00 0.00 34 1012.0
20260505225718 73 333 5.0 10.0 0.00 0.00 0.00 36 1012.1
20260505225003 73 345 3.0 16.0 0.00 0.00 0.00 34 1012.1
20260505224503 73 342 3.0 16.0 0.00 0.00 0.00 34 1012.1
20260505224003 74 327 3.0 8.0 0.00 0.00 0.00 34 1012.1
20260505223503 73 333 3.0 9.0 0.00 0.00 0.00 33 1012.1
20260505223003 73 326 2.0 9.0 0.00 0.00 0.00 33 1012.2
20260505222503 73 276 2.0 9.0 0.00 0.00 0.00 35 1012.2
20260505222003 73 296 3.0 9.0 0.00 0.00 0.00 35 1012.2
20260505221718 73 314 3.0 7.0 0.00 0.00 0.00 35 1012.2
20260505221003 73 336 4.0 13.0 0.00 0.00 0.00 35 1012.3
20260505220503 73 340 4.0 13.0 0.00 0.00 0.00 35 1012.3
20260505220003 73 345 4.0 12.0 0.00 0.00 0.00 36 1012.3
20260505215503 72 345 4.0 10.0 0.00 0.00 0.00 35 1012.3
20260505215003 72 345 4.0 11.0 0.00 0.00 0.00 34 1012.4
20260505214717 73 341 4.0 11.0 0.00 0.00 0.00 33 1012.4
20260505214218 74 341 3.0 11.0 0.00 0.00 0.00 36 1012.4
20260505213503 74 335 3.0 13.0 0.00 0.00 0.00 35 1012.5
20260505213003 73 330 3.0 13.0 0.00 0.00 0.00 35 1012.4
20260505212503 74 336 3.0 10.0 0.00 0.00 0.00 35 1012.5
20260505212218 74 340 3.0 10.0 0.00 0.00 0.00 36 1012.5
20260505211503 73 343 3.0 13.0 0.00 0.00 0.00 34 1012.6
20260505211218 73 333 3.0 13.0 0.00 0.00 0.00 33 1012.6
20260505210503 73 322 4.0 10.0 0.00 0.00 0.00 33 1012.5
20260505210004 72 344 3.0 10.0 0.00 0.00 0.00 37 1012.6
20260505205503 73 338 2.0 10.0 0.00 0.00 0.00 34 1012.6
20260505205003 74 301 1.0 7.0 0.00 0.00 0.00 36 1012.6
20260505204503 74 265 2.0 6.0 0.00 0.00 0.00 36 1012.5
20260505204003 73 277 2.0 5.0 0.00 0.00 0.00 34 1012.6
20260505203503 74 273 2.0 11.0 0.00 0.00 0.00 35 1012.5
20260505203003 73 280 1.0 11.0 0.00 0.00 0.00 34 1012.6
20260505202503 74 318 1.0 4.0 0.00 0.00 0.00 34 1012.6
20260505202003 74 268 2.0 6.0 0.00 0.00 0.00 39 1012.6
20260505201504 73 230 2.0 6.0 0.00 0.00 0.00 35 1012.6
20260505201003 73 214 3.0 6.0 0.00 0.00 0.00 38 1012.6
20260505200505 73 228 3.0 6.0 0.00 0.00 0.00 36 1012.6
20260505200003 73 323 3.0 8.0 0.00 0.00 0.00 39 1012.6
20260505195503 73 292 2.0 12.0 0.00 0.00 0.00 35 1012.7
20260505195003 72 253 1.0 12.0 0.00 0.00 0.00 33 1012.6
20260505194504 73 288 1.0 3.0 0.00 0.00 0.00 37 1012.6
20260505194003 72 295 1.0 3.0 0.00 0.00 0.00 37 1012.7
20260505193503 72 353 1.0 7.0 0.00 0.00 0.00 35 1012.7
20260505193003 73 318 1.0 7.0 0.00 0.00 0.00 35 1012.7
20260505192718 73 268 1.0 4.0 0.00 0.00 0.00 34 1012.7
20260505192003 73 223 2.0 5.0 0.00 0.00 0.00 36 1012.8
20260505191503 72 194 1.0 5.0 0.00 0.00 0.00 35 1012.7
20260505191003 72 148 1.0 5.0 0.00 0.00 0.00 37 1012.8
20260505190503 72 105 0.0 3.0 0.00 0.00 0.00 38 1012.7
20260505190004 71 75 1.0 2.0 0.00 0.00 0.00 40 1012.8
20260505185722 71 85 1.0 2.0 0.00 0.00 0.00 38 1012.8
20260505185003 70 51 1.0 4.0 0.00 0.00 0.00 39 1012.9
20260505184504 70 46 1.0 4.0 0.00 0.00 0.00 37 1012.9
20260505184003 70 43 1.0 4.0 0.00 0.00 0.00 38 1012.9
20260505183718 69 59 1.0 4.0 0.00 0.00 0.00 39 1012.8
20260505183217 69 59 1.0 4.0 0.00 0.00 0.00 40 1012.9
20260505182503 69 52 1.0 5.0 0.00 0.00 0.00 38 1013.0
20260505182003 69 44 1.0 5.0 0.00 0.00 0.00 38 1013.0
20260505181503 69 60 1.0 4.0 0.00 0.00 0.00 38 1013.0
20260505181003 69 78 1.0 4.0 0.00 0.00 0.00 41 1013.0
20260505180503 69 67 1.0 4.0 0.00 0.00 0.00 43 1013.0
20260505180003 68 60 1.0 6.0 0.00 0.00 0.00 42 1013.0
20260505175503 68 53 1.0 6.0 0.00 0.00 0.00 43 1013.0
20260505175003 68 47 1.0 4.0 0.00 0.00 0.00 44 1013.0
20260505174503 68 45 1.0 4.0 0.00 0.00 0.00 43 1013.0
20260505174003 68 46 1.0 4.0 0.00 0.00 0.00 43 1013.0
20260505173503 68 58 1.0 3.0 0.00 0.00 0.00 42 1013.0
20260505173003 68 61 1.0 3.0 0.00 0.00 0.00 44 1013.0
20260505172503 67 68 1.0 5.0 0.00 0.00 0.00 45 1012.9
20260505172003 67 62 1.0 5.0 0.00 0.00 0.00 43 1012.9
20260505171718 67 48 1.0 4.0 0.00 0.00 0.00 41 1013.0
20260505171217 67 41 1.0 3.0 0.00 0.00 0.00 45 1012.9
20260505170503 68 37 1.0 6.0 0.00 0.00 0.00 45 1012.9
20260505170003 67 38 1.0 3.0 0.00 0.00 0.00 42 1012.9
20260505165718 67 58 1.0 3.0 0.00 0.00 0.00 45 1012.9